﻿測定場所 (Monitoring sites),日付 (Measurement date),時間 (Measurement time),線量率 最大値 (max) μGy/h,線量率 最小値 (min) μGy/h,線量率 平均値 (average) μGy/h,
足立 (Adachi),2019-10-20,23:01～24:00,0.0311,0.0276,0.0291,
足立 (Adachi),2019-10-20,22:01～23:00,0.0313,0.0272,0.0288,
足立 (Adachi),2019-10-20,21:01～22:00,0.0313,0.0271,0.0291,
足立 (Adachi),2019-10-20,20:01～21:00,0.0305,0.0272,0.0290,
足立 (Adachi),2019-10-20,19:01～20:00,0.0316,0.0273,0.0290,
足立 (Adachi),2019-10-20,18:01～19:00,0.0310,0.0269,0.0290,
足立 (Adachi),2019-10-20,17:01～18:00,0.0313,0.0269,0.0288,
足立 (Adachi),2019-10-20,16:01～17:00,0.0306,0.0271,0.0288,
足立 (Adachi),2019-10-20,15:01～16:00,0.0308,0.0264,0.0290,
足立 (Adachi),2019-10-20,14:01～15:00,0.0308,0.0270,0.0289,
足立 (Adachi),2019-10-20,13:01～14:00,0.0305,0.0275,0.0290,
足立 (Adachi),2019-10-20,12:01～13:00,0.0316,0.0275,0.0291,
足立 (Adachi),2019-10-20,11:01～12:00,0.0315,0.0277,0.0296,
足立 (Adachi),2019-10-20,10:01～11:00,0.0321,0.0278,0.0295,
足立 (Adachi),2019-10-20,09:01～10:00,0.0315,0.0279,0.0296,
足立 (Adachi),2019-10-20,08:01～09:00,0.0307,0.0265,0.0289,
足立 (Adachi),2019-10-20,07:01～08:00,0.0321,0.0275,0.0295,
足立 (Adachi),2019-10-20,06:01～07:00,0.0317,0.0281,0.0299,
足立 (Adachi),2019-10-20,05:01～06:00,0.0317,0.0277,0.0295,
足立 (Adachi),2019-10-20,04:01～05:00,0.0310,0.0272,0.0293,
足立 (Adachi),2019-10-20,03:01～04:00,0.0314,0.0268,0.0292,
足立 (Adachi),2019-10-20,02:01～03:00,0.0311,0.0277,0.0293,
足立 (Adachi),2019-10-20,01:01～02:00,0.0308,0.0272,0.0293,
足立 (Adachi),2019-10-20,00:01～01:00,0.0307,0.0277,0.0293,
足立 (Adachi),2019-10-19,23:01～24:00,0.0309,0.0275,0.0292,
足立 (Adachi),2019-10-19,22:01～23:00,0.0309,0.0273,0.0292,
足立 (Adachi),2019-10-19,21:01～22:00,0.0306,0.0269,0.0289,
足立 (Adachi),2019-10-19,20:01～21:00,0.0319,0.0273,0.0287,
足立 (Adachi),2019-10-19,19:01～20:00,0.0307,0.0269,0.0287,
足立 (Adachi),2019-10-19,18:01～19:00,0.0315,0.0265,0.0289,
足立 (Adachi),2019-10-19,17:01～18:00,0.0303,0.0268,0.0285,
足立 (Adachi),2019-10-19,16:01～17:00,0.0311,0.0264,0.0287,
足立 (Adachi),2019-10-19,15:01～16:00,0.0303,0.0260,0.0285,
足立 (Adachi),2019-10-19,14:01～15:00,0.0315,0.0265,0.0287,
足立 (Adachi),2019-10-19,13:01～14:00,0.0304,0.0269,0.0287,
足立 (Adachi),2019-10-19,12:01～13:00,0.0304,0.0267,0.0286,
足立 (Adachi),2019-10-19,11:01～12:00,0.0313,0.0277,0.0295,
足立 (Adachi),2019-10-19,10:01～11:00,0.0339,0.0284,0.0311,
足立 (Adachi),2019-10-19,09:01～10:00,0.0347,0.0310,0.0327,
足立 (Adachi),2019-10-19,08:01～09:00,0.0349,0.0311,0.0328,
足立 (Adachi),2019-10-19,07:01～08:00,0.0411,0.0323,0.0355,
足立 (Adachi),2019-10-19,06:01～07:00,0.0459,0.0381,0.0418,
足立 (Adachi),2019-10-19,05:01～06:00,0.0446,0.0369,0.0408,
足立 (Adachi),2019-10-19,04:01～05:00,0.0474,0.0387,0.0425,
足立 (Adachi),2019-10-19,03:01～04:00,0.0461,0.0359,0.0405,
足立 (Adachi),2019-10-19,02:01～03:00,0.0445,0.0368,0.0399,
足立 (Adachi),2019-10-19,01:01～02:00,0.0453,0.0374,0.0411,
足立 (Adachi),2019-10-19,00:01～01:00,0.0424,0.0342,0.0378,
足立 (Adachi),2019-10-18,23:01～24:00,0.0399,0.0305,0.0348,
足立 (Adachi),2019-10-18,22:01～23:00,0.0415,0.0331,0.0363,
足立 (Adachi),2019-10-18,21:01～22:00,0.0423,0.0346,0.0365,
足立 (Adachi),2019-10-18,20:01～21:00,0.0369,0.0307,0.0337,
足立 (Adachi),2019-10-18,19:01～20:00,0.0348,0.0289,0.0317,
足立 (Adachi),2019-10-18,18:01～19:00,0.0327,0.0284,0.0304,
足立 (Adachi),2019-10-18,17:01～18:00,0.0338,0.0283,0.0314,
足立 (Adachi),2019-10-18,16:01～17:00,0.0307,0.0273,0.0291,
足立 (Adachi),2019-10-18,15:01～16:00,0.0305,0.0271,0.0289,
足立 (Adachi),2019-10-18,14:01～15:00,0.0315,0.0273,0.0292,
足立 (Adachi),2019-10-18,13:01～14:00,0.0311,0.0272,0.0292,
足立 (Adachi),2019-10-18,12:01～13:00,0.0312,0.0269,0.0291,
足立 (Adachi),2019-10-18,11:01～12:00,0.0305,0.0275,0.0291,
足立 (Adachi),2019-10-18,10:01～11:00,0.0323,0.0269,0.0290,
足立 (Adachi),2019-10-18,09:01～10:00,0.0317,0.0277,0.0294,
足立 (Adachi),2019-10-18,08:01～09:00,0.0326,0.0276,0.0295,
足立 (Adachi),2019-10-18,07:01～08:00,0.0327,0.0282,0.0311,
足立 (Adachi),2019-10-18,06:01～07:00,0.0347,0.0301,0.0322,
足立 (Adachi),2019-10-18,05:01～06:00,0.0358,0.0300,0.0325,
足立 (Adachi),2019-10-18,04:01～05:00,0.0340,0.0285,0.0316,
足立 (Adachi),2019-10-18,03:01～04:00,0.0317,0.0278,0.0299,
足立 (Adachi),2019-10-18,02:01～03:00,0.0323,0.0279,0.0295,
足立 (Adachi),2019-10-18,01:01～02:00,0.0310,0.0271,0.0293,
足立 (Adachi),2019-10-18,00:01～01:00,0.0323,0.0280,0.0303,
足立 (Adachi),2019-10-17,23:01～24:00,0.0365,0.0297,0.0329,
足立 (Adachi),2019-10-17,22:01～23:00,0.0410,0.0349,0.0369,
足立 (Adachi),2019-10-17,21:01～22:00,0.0392,0.0331,0.0353,
足立 (Adachi),2019-10-17,20:01～21:00,0.0381,0.0320,0.0356,
足立 (Adachi),2019-10-17,19:01～20:00,0.0342,0.0304,0.0322,
足立 (Adachi),2019-10-17,18:01～19:00,0.0437,0.0318,0.0358,
足立 (Adachi),2019-10-17,17:01～18:00,0.0460,0.0373,0.0412,
足立 (Adachi),2019-10-17,16:01～17:00,0.0453,0.0398,0.0419,
足立 (Adachi),2019-10-17,15:01～16:00,0.0427,0.0346,0.0384,
足立 (Adachi),2019-10-17,14:01～15:00,0.0357,0.0280,0.0318,
足立 (Adachi),2019-10-17,13:01～14:00,0.0321,0.0282,0.0295,
足立 (Adachi),2019-10-17,12:01～13:00,0.0318,0.0278,0.0293,
足立 (Adachi),2019-10-17,11:01～12:00,0.0316,0.0277,0.0294,
足立 (Adachi),2019-10-17,10:01～11:00,0.0320,0.0278,0.0299,
足立 (Adachi),2019-10-17,09:01～10:00,0.0321,0.0277,0.0298,
足立 (Adachi),2019-10-17,08:01～09:00,0.0316,0.0272,0.0295,
足立 (Adachi),2019-10-17,07:01～08:00,0.0307,0.0274,0.0290,
足立 (Adachi),2019-10-17,06:01～07:00,0.0321,0.0278,0.0294,
足立 (Adachi),2019-10-17,05:01～06:00,0.0308,0.0275,0.0293,
足立 (Adachi),2019-10-17,04:01～05:00,0.0316,0.0271,0.0290,
足立 (Adachi),2019-10-17,03:01～04:00,0.0315,0.0274,0.0292,
足立 (Adachi),2019-10-17,02:01～03:00,0.0318,0.0269,0.0294,
足立 (Adachi),2019-10-17,01:01～02:00,0.0322,0.0271,0.0297,
足立 (Adachi),2019-10-17,00:01～01:00,0.0320,0.0279,0.0298,
足立 (Adachi),2019-10-16,23:01～24:00,0.0319,0.0278,0.0297,
足立 (Adachi),2019-10-16,22:01～23:00,0.0315,0.0280,0.0296,
足立 (Adachi),2019-10-16,21:01～22:00,0.0315,0.0282,0.0296,
足立 (Adachi),2019-10-16,20:01～21:00,0.0309,0.0277,0.0294,
足立 (Adachi),2019-10-16,19:01～20:00,0.0319,0.0278,0.0293,
足立 (Adachi),2019-10-16,18:01～19:00,0.0311,0.0266,0.0293,
足立 (Adachi),2019-10-16,17:01～18:00,0.0310,0.0270,0.0290,
足立 (Adachi),2019-10-16,16:01～17:00,0.0315,0.0273,0.0293,
足立 (Adachi),2019-10-16,15:01～16:00,0.0313,0.0272,0.0291,
足立 (Adachi),2019-10-16,14:01～15:00,0.0319,0.0275,0.0291,
足立 (Adachi),2019-10-16,13:01～14:00,0.0312,0.0273,0.0291,
足立 (Adachi),2019-10-16,12:01～13:00,0.0310,0.0272,0.0293,
足立 (Adachi),2019-10-16,11:01～12:00,0.0312,0.0279,0.0294,
足立 (Adachi),2019-10-16,10:01～11:00,0.0309,0.0272,0.0292,
足立 (Adachi),2019-10-16,09:01～10:00,0.0312,0.0276,0.0295,
足立 (Adachi),2019-10-16,08:01～09:00,0.0309,0.0275,0.0292,
足立 (Adachi),2019-10-16,07:01～08:00,0.0323,0.0273,0.0294,
足立 (Adachi),2019-10-16,06:01～07:00,0.0314,0.0272,0.0292,
足立 (Adachi),2019-10-16,05:01～06:00,0.0314,0.0274,0.0292,
足立 (Adachi),2019-10-16,04:01～05:00,0.0312,0.0276,0.0293,
足立 (Adachi),2019-10-16,03:01～04:00,0.0314,0.0275,0.0297,
足立 (Adachi),2019-10-16,02:01～03:00,0.0314,0.0275,0.0296,
足立 (Adachi),2019-10-16,01:01～02:00,0.0317,0.0274,0.0296,
足立 (Adachi),2019-10-16,00:01～01:00,0.0312,0.0270,0.0292,
足立 (Adachi),2019-10-15,23:01～24:00,0.0311,0.0271,0.0294,
足立 (Adachi),2019-10-15,22:01～23:00,0.0313,0.0276,0.0296,
足立 (Adachi),2019-10-15,21:01～22:00,0.0313,0.0280,0.0296,
足立 (Adachi),2019-10-15,20:01～21:00,0.0310,0.0271,0.0293,
足立 (Adachi),2019-10-15,19:01～20:00,0.0317,0.0274,0.0296,
足立 (Adachi),2019-10-15,18:01～19:00,0.0318,0.0278,0.0295,
足立 (Adachi),2019-10-15,17:01～18:00,0.0305,0.0276,0.0291,
足立 (Adachi),2019-10-15,16:01～17:00,0.0320,0.0274,0.0292,
足立 (Adachi),2019-10-15,15:01～16:00,0.0303,0.0272,0.0290,
足立 (Adachi),2019-10-15,14:01～15:00,0.0307,0.0272,0.0292,
足立 (Adachi),2019-10-15,13:01～14:00,0.0315,0.0268,0.0285,
足立 (Adachi),2019-10-15,12:01～13:00,0.0302,0.0265,0.0288,
足立 (Adachi),2019-10-15,11:01～12:00,0.0315,0.0269,0.0292,
足立 (Adachi),2019-10-15,10:01～11:00,0.0311,0.0270,0.0290,
足立 (Adachi),2019-10-15,09:01～10:00,0.0316,0.0279,0.0292,
足立 (Adachi),2019-10-15,08:01～09:00,0.0309,0.0262,0.0283,
足立 (Adachi),2019-10-15,07:01～08:00,0.0291,0.0253,0.0272,
足立 (Adachi),2019-10-15,06:01～07:00,0.0303,0.0258,0.0287,
足立 (Adachi),2019-10-15,05:01～06:00,0.0318,0.0270,0.0291,
足立 (Adachi),2019-10-15,04:01～05:00,0.0315,0.0273,0.0291,
足立 (Adachi),2019-10-15,03:01～04:00,0.0311,0.0277,0.0293,
足立 (Adachi),2019-10-15,02:01～03:00,0.0307,0.0267,0.0292,
足立 (Adachi),2019-10-15,01:01～02:00,0.0318,0.0277,0.0298,
足立 (Adachi),2019-10-15,00:01～01:00,0.0350,0.0286,0.0314,
足立 (Adachi),2019-10-14,23:01～24:00,0.0347,0.0298,0.0319,
足立 (Adachi),2019-10-14,22:01～23:00,0.0347,0.0305,0.0330,
足立 (Adachi),2019-10-14,21:01～22:00,0.0352,0.0295,0.0322,
足立 (Adachi),2019-10-14,20:01～21:00,0.0331,0.0287,0.0310,
足立 (Adachi),2019-10-14,19:01～20:00,0.0362,0.0293,0.0319,
足立 (Adachi),2019-10-14,18:01～19:00,0.0374,0.0320,0.0345,
足立 (Adachi),2019-10-14,17:01～18:00,0.0370,0.0304,0.0334,
足立 (Adachi),2019-10-14,16:01～17:00,0.0358,0.0309,0.0332,
足立 (Adachi),2019-10-14,15:01～16:00,0.0349,0.0303,0.0325,
足立 (Adachi),2019-10-14,14:01～15:00,0.0387,0.0314,0.0352,
足立 (Adachi),2019-10-14,13:01～14:00,0.0365,0.0296,0.0327,
足立 (Adachi),2019-10-14,12:01～13:00,0.0341,0.0286,0.0310,
足立 (Adachi),2019-10-14,11:01～12:00,0.0350,0.0294,0.0322,
足立 (Adachi),2019-10-14,10:01～11:00,0.0364,0.0319,0.0338,
足立 (Adachi),2019-10-14,09:01～10:00,0.0386,0.0323,0.0355,
足立 (Adachi),2019-10-14,08:01～09:00,0.0386,0.0311,0.0351,
足立 (Adachi),2019-10-14,07:01～08:00,0.0330,0.0276,0.0302,
足立 (Adachi),2019-10-14,06:01～07:00,0.0317,0.0283,0.0299,
足立 (Adachi),2019-10-14,05:01～06:00,0.0315,0.0277,0.0296,
足立 (Adachi),2019-10-14,04:01～05:00,0.0313,0.0276,0.0293,
足立 (Adachi),2019-10-14,03:01～04:00,0.0310,0.0265,0.0292,
足立 (Adachi),2019-10-14,02:01～03:00,0.0310,0.0276,0.0292,
足立 (Adachi),2019-10-14,01:01～02:00,0.0313,0.0275,0.0295,
足立 (Adachi),2019-10-14,00:01～01:00,0.0305,0.0274,0.0292,
